Regional Weather Roundup
Issued by NWS Little Rock, AR

Home | Current Version | Previous Version | Graphics & Text | Print | Product List | Glossary On
Versions: 1 2 3 4 5 6 7 8 9 10 11 12 13 14 15 16 17 18 19 20 21 22 23 24 25 26 27 28 29 30 31 32 33 34 35 36 37 38 39 40 41 42 43 44 45 46 47 48 49 50
511
ASUS44 KLZK 261812
RWRLZK

WEATHER ROUNDUP FOR ARKANSAS
NATIONAL WEATHER SERVICE LITTLE ROCK AR
100 PM CDT SUN MAR 26 2017

NOTE: "FAIR" INDICATES FEW OR NO CLOUDS BELOW 12,000 FEET WITH NO
SIGNIFICANT WEATHER AND/OR OBSTRUCTIONS TO VISIBILITY.

ARZ001-003-010-029-261900-
NORTHWEST ARKANSAS

CITY           SKY/WX    TMP DP  RH WIND       PRES   REMARKS
FAYETTEVILLE   SUNNY     66  51  58 W12       29.94F
6HR MIN TEMP:  40; 6HR MAX TEMP:  66; 6HR PCP: TRACE;

FORT SMITH     CLOUDY    68  50  52 NE9       29.93F
6HR MIN TEMP:  43; 6HR MAX TEMP:  68;

HARRISON       SUNNY     64  48  56 CALM      29.94F
6HR MIN TEMP:  46; 6HR MAX TEMP:  64;

BENTONVILLE    CLOUDY    63  48  59 SW3       29.96S
6HR MIN TEMP:  43; 6HR MAX TEMP:  63;

ROGERS         CLOUDY    62  49  62 VRB7      29.95F
6HR MIN TEMP:  43; 6HR MAX TEMP:  63;

SILOAM SPGS    SUNNY     63  48  59 S7        29.94F
6HR MIN TEMP:  39; 6HR MAX TEMP:  63;

HIGHFILL       CLOUDY    62  50  64 VRB3      29.94F
6HR MIN TEMP:  43; 6HR MAX TEMP:  63;

SPRINGDALE     PTSUNNY   64  48  55 SW7       29.96F
$$

ARZ004-005-016-261900-
NORTH CENTRAL ARKANSAS

CITY           SKY/WX    TMP DP  RH WIND       PRES   REMARKS
BATESVILLE     MOSUNNY   66  48  52 SW8       29.97F
6HR MIN TEMP:  52; 6HR MAX TEMP:  68;

FLIPPIN        SUNNY     64  45  48 SE7       29.93F
6HR MIN TEMP:  50; 6HR MAX TEMP:  64;

MTN HOME       MOSUNNY   62  47  57 S8        29.95F
6HR MIN TEMP:  49; 6HR MAX TEMP:  62;

$$

ARZ040-041-261900-
WEST CENTRAL ARKANSAS

CITY           SKY/WX    TMP DP  RH WIND       PRES   REMARKS
MENA           SUNNY     73  50  43 SE6       29.95F
MOUNT IDA      SUNNY     72  48  42 VRB7      29.93F
6HR MIN TEMP:  43; 6HR MAX TEMP:  72;

$$

ARZ009-017-025-026-028-261900-
NORTHEAST ARKANSAS

CITY           SKY/WX    TMP DP  RH WIND       PRES   REMARKS
CORNING        MOCLDY    63  48  59 SW12G17   29.98F
JONESBORO      SUNNY     65  52  62 SW9       29.97F
6HR MIN TEMP:  53; 6HR MAX TEMP:  65;

NEWPORT        SUNNY     66  50  56 S9G16     29.98F
6HR MIN TEMP:  53; 6HR MAX TEMP:  66;

WALNUT RIDGE   MOSUNNY   64  48  55 SW10      29.97F
6HR MIN TEMP:  52; 6HR MAX TEMP:  64;

BLYTHEVILLE    MOSUNNY   66  56  70 SW13      29.98F
6HR MIN TEMP:  55; 6HR MAX TEMP:  66;

$$

ARZ022-023-033-042-044-261900-
CENTRAL ARKANSAS

CITY           SKY/WX    TMP DP  RH WIND       PRES   REMARKS
LITTLE ROCK    MOSUNNY   70  51  51 S9        29.98F
6HR MIN TEMP:  45; 6HR MAX TEMP:  71;

N LITTLE ROCK    N/A     68  52  56 SW5       29.99F
6HR MIN TEMP:  46; 6HR MAX TEMP:  68;

JACKSONVILLE   SUNNY     68  52  56 S7        29.97F
CONWAY           N/A     68  52  56 VRB6      29.96F
SEARCY         SUNNY     69  52  54 VRB7      29.99F
6HR MIN TEMP:  45; 6HR MAX TEMP:  69;

HOT SPRINGS    SUNNY     72  52  49 VRB7      29.97F
6HR MIN TEMP:  48; 6HR MAX TEMP:  72;

RUSSELLVILLE   SUNNY     66  50  56 VRB5      29.97F
6HR MIN TEMP:  43; 6HR MAX TEMP:  66;

CLINTON        FAIR      66  48  52 VRB6G13   29.97F
$$

ARZ036-261900-
EAST ARKANSAS

CITY           SKY/WX    TMP DP  RH WIND       PRES   REMARKS
WEST MEMPHIS   SUNNY     68  55  63 VRB6      29.97F
6HR MIN TEMP:  54; 6HR MAX TEMP:  69;

$$

ARZ050-053-066-070-073-261900-
SOUTHWEST ARKANSAS

CITY           SKY/WX    TMP DP  RH WIND       PRES   REMARKS
ARKADELPHIA    FAIR      72  53  51 SW6       29.97F
6HR MIN TEMP:  48; 6HR MAX TEMP:  72;

CAMDEN         SUNNY     77  46  33 SW6       29.97F
TEXARKANA      SUNNY     74  50  42 SE6       29.95F
6HR MIN TEMP:  47; 6HR MAX TEMP:  74;

EL DORADO      SUNNY     76  50  40 S8        29.98F
6HR MIN TEMP:  47; 6HR MAX TEMP:  76;

DE QUEEN       SUNNY     73  54  51 SE8       29.93F
6HR MIN TEMP:  43; 6HR MAX TEMP:  73;

$$

ARZ056-057-069-261900-
SOUTHEAST ARKANSAS

CITY           SKY/WX    TMP DP  RH WIND       PRES   REMARKS
PINE BLUFF     SUNNY     73  51  46 S12       29.98F
6HR MIN TEMP:  48; 6HR MAX TEMP:  73;

STUTTGART      SUNNY     70  50  49 S8        30.00S
6HR MIN TEMP:  48; 6HR MAX TEMP:  70;

MONTICELLO     SUNNY     75  50  41 SW9       29.98F
6HR MIN TEMP:  48; 6HR MAX TEMP:  75;


$$






USA.gov is the U.S. government's official web portal to all federal, state and local government web resources and services.